FFT1005 KPHL-KCLE

Flight info

Callsign FFT1005
Flight time 1h 2m
Altitude 36000
Route PTW SARAA RAV PSB UPPRR TRYBE4
Aircraft A320/M-SDE3FGHIRWY/LB1

Departure

Time 2026-05-05 02:15
Airport Philadelphia International Airport (KPHL)

Arrival

Time 2026-05-05 03:17
Airport Cleveland Hopkins International Airport (KCLE)
Time Latitude Longitude Altitude Speed Heading
2026-05-05 01:48 39.87715 -75.23713 30 ft 0 kts 30°
2026-05-05 01:58 39.87711 -75.23716 26 ft 3 kts 31°
2026-05-05 01:58 39.87689 -75.23735 28 ft 4 kts 42°
2026-05-05 01:58 39.87674 -75.23760 29 ft 4 kts 89°
2026-05-05 01:59 39.87676 -75.23773 27 ft 0 kts 122°
2026-05-05 02:00 39.87669 -75.23760 25 ft 7 kts 122°
2026-05-05 02:01 39.87635 -75.23690 29 ft 11 kts 122°
2026-05-05 02:01 39.87624 -75.23666 28 ft 0 kts 121°
2026-05-05 02:01 39.87623 -75.23663 28 ft 1 kts 121°
2026-05-05 02:02 39.87618 -75.23653 23 ft 0 kts 121°
2026-05-05 02:05 39.87617 -75.23652 23 ft 0 kts 121°
2026-05-05 02:05 39.87616 -75.23650 23 ft 0 kts 121°
2026-05-05 02:06 39.87616 -75.23649 22 ft 0 kts 121°
2026-05-05 02:09 39.87615 -75.23646 25 ft 3 kts 121°
2026-05-05 02:09 39.87535 -75.23611 25 ft 18 kts 197°
2026-05-05 02:09 39.87457 -75.23693 28 ft 13 kts 224°
2026-05-05 02:09 39.87409 -75.23722 27 ft 1 kts 180°
2026-05-05 02:10 39.87369 -75.23721 27 ft 10 kts 185°
2026-05-05 02:10 39.87279 -75.23716 28 ft 16 kts 162°
2026-05-05 02:10 39.87157 -75.23671 29 ft 19 kts 166°
2026-05-05 02:10 39.87051 -75.23638 25 ft 14 kts 167°
2026-05-05 02:11 39.86991 -75.23583 27 ft 2 kts 98°
2026-05-05 02:12 39.86985 -75.23540 29 ft 8 kts 110°
2026-05-05 02:12 39.86953 -75.23509 27 ft 0 kts 157°
2026-05-05 02:13 39.86904 -75.23496 27 ft 12 kts 191°
2026-05-05 02:13 39.86874 -75.23554 27 ft 0 kts 253°
2026-05-05 02:14 39.86854 -75.23647 28 ft 41 kts 256°
2026-05-05 02:14 39.86711 -75.24354 28 ft 116 kts 255°
2026-05-05 02:14 39.86457 -75.25603 29 ft 167 kts 254°
2026-05-05 02:14 39.86182 -75.27151 460 ft 181 kts 256°
2026-05-05 02:15 39.85913 -75.28815 1044 ft 196 kts 253°
2026-05-05 02:15 39.85608 -75.30627 1689 ft 213 kts 252°
2026-05-05 02:15 39.85312 -75.32581 2463 ft 226 kts 254°
2026-05-05 02:15 39.85034 -75.34627 3320 ft 233 kts 256°
2026-05-05 02:16 39.84736 -75.36737 4050 ft 246 kts 255°
2026-05-05 02:16 39.84365 -75.38912 4102 ft 247 kts 254°
2026-05-05 02:16 39.83966 -75.41090 5051 ft 246 kts 253°
2026-05-05 02:16 39.83536 -75.43248 6087 ft 247 kts 253°
2026-05-05 02:17 39.83089 -75.45408 7019 ft 249 kts 255°
2026-05-05 02:17 39.82995 -75.47643 7848 ft 256 kts 278°
2026-05-05 02:17 39.83710 -75.49781 8751 ft 265 kts 305°
2026-05-05 02:17 39.85170 -75.51278 9692 ft 275 kts 333°
2026-05-05 02:18 39.87086 -75.51812 10380 ft 293 kts 348°
2026-05-05 02:18 39.89196 -75.52101 10717 ft 315 kts 350°
2026-05-05 02:18 39.91415 -75.52356 11362 ft 324 kts 351°
2026-05-05 02:18 39.93679 -75.52598 12113 ft 329 kts 351°
2026-05-05 02:19 39.95982 -75.52845 12778 ft 335 kts 351°
2026-05-05 02:19 39.98314 -75.53104 12988 ft 337 kts 351°
2026-05-05 02:19 40.00650 -75.53375 13049 ft 337 kts 351°
2026-05-05 02:19 40.02979 -75.53657 13040 ft 336 kts 350°
2026-05-05 02:20 40.05304 -75.53944 13037 ft 335 kts 350°
2026-05-05 02:20 40.07648 -75.54232 13507 ft 340 kts 350°
2026-05-05 02:20 40.10008 -75.54520 14265 ft 342 kts 351°
2026-05-05 02:20 40.12396 -75.54816 14928 ft 347 kts 351°
2026-05-05 02:21 40.14813 -75.55115 15547 ft 352 kts 351°
2026-05-05 02:21 40.17266 -75.55420 16158 ft 357 kts 351°
2026-05-05 02:21 40.19722 -75.55950 16762 ft 358 kts 340°
2026-05-05 02:21 40.22005 -75.57133 17362 ft 358 kts 328°
2026-05-05 02:22 40.24055 -75.58964 17990 ft 358 kts 315°
2026-05-05 02:22 40.25769 -75.61316 18551 ft 359 kts 307°
2026-05-05 02:22 40.27408 -75.63801 19113 ft 362 kts 308°
2026-05-05 02:22 40.29066 -75.66305 19693 ft 365 kts 308°
2026-05-05 02:23 40.30738 -75.68829 20263 ft 368 kts 308°
2026-05-05 02:23 40.32419 -75.71364 20822 ft 370 kts 309°
2026-05-05 02:23 40.34119 -75.73921 21380 ft 373 kts 309°
2026-05-05 02:23 40.35827 -75.76492 21934 ft 376 kts 309°
2026-05-05 02:24 40.37547 -75.79087 22472 ft 378 kts 309°
2026-05-05 02:24 40.39277 -75.81709 22970 ft 382 kts 309°
2026-05-05 02:24 40.41020 -75.84353 23494 ft 385 kts 309°
2026-05-05 02:24 40.42810 -75.86981 23928 ft 387 kts 310°
2026-05-05 02:25 40.44579 -75.89662 24359 ft 389 kts 308°
2026-05-05 02:25 40.46321 -75.92392 24761 ft 392 kts 308°
2026-05-05 02:25 40.48071 -75.95146 24885 ft 392 kts 308°
2026-05-05 02:25 40.49818 -75.97897 24910 ft 392 kts 308°
2026-05-05 02:26 40.51538 -76.00602 24908 ft 391 kts 308°
2026-05-05 02:26 40.53279 -76.03340 24905 ft 390 kts 308°
2026-05-05 02:26 40.55023 -76.06081 24903 ft 390 kts 308°
2026-05-05 02:26 40.56771 -76.08829 25089 ft 393 kts 308°
2026-05-05 02:27 40.58508 -76.11556 26014 ft 379 kts 308°
2026-05-05 02:27 40.60159 -76.14151 27262 ft 360 kts 308°
2026-05-05 02:27 40.61784 -76.16708 27574 ft 370 kts 308°
2026-05-05 02:27 40.63461 -76.19347 27713 ft 381 kts 308°
2026-05-05 02:28 40.64885 -76.22314 27853 ft 388 kts 292°
2026-05-05 02:28 40.65629 -76.25760 27997 ft 397 kts 282°
2026-05-05 02:28 40.66210 -76.29352 28170 ft 404 kts 282°
2026-05-05 02:28 40.66783 -76.32998 28478 ft 408 kts 282°
2026-05-05 02:29 40.67354 -76.36673 28845 ft 411 kts 282°
2026-05-05 02:29 40.67929 -76.40376 29219 ft 414 kts 282°
2026-05-05 02:29 40.68506 -76.44093 29601 ft 416 kts 282°
2026-05-05 02:29 40.69086 -76.47836 29962 ft 418 kts 282°
2026-05-05 02:30 40.69671 -76.51601 30265 ft 420 kts 282°
2026-05-05 02:30 40.70256 -76.55381 30568 ft 422 kts 282°
2026-05-05 02:30 40.70835 -76.59126 30864 ft 423 kts 282°
2026-05-05 02:30 40.71424 -76.62930 31161 ft 425 kts 282°
2026-05-05 02:31 40.72018 -76.66751 31479 ft 425 kts 282°
2026-05-05 02:31 40.72609 -76.70572 31899 ft 423 kts 282°
2026-05-05 02:31 40.73193 -76.74367 32333 ft 421 kts 282°
2026-05-05 02:31 40.73771 -76.78141 32760 ft 420 kts 282°
2026-05-05 02:32 40.74345 -76.81905 33179 ft 418 kts 282°
2026-05-05 02:32 40.74915 -76.85657 33621 ft 416 kts 282°
2026-05-05 02:32 40.75483 -76.89391 34035 ft 414 kts 282°
2026-05-05 02:32 40.76046 -76.93100 34433 ft 412 kts 282°
2026-05-05 02:33 40.76604 -76.96800 34826 ft 409 kts 282°
2026-05-05 02:33 40.77156 -77.00469 35202 ft 407 kts 282°
2026-05-05 02:33 40.77706 -77.04120 35572 ft 405 kts 282°
2026-05-05 02:33 40.78257 -77.07758 35810 ft 404 kts 282°
2026-05-05 02:34 40.78800 -77.11362 35854 ft 399 kts 282°
2026-05-05 02:34 40.79866 -77.18502 35850 ft 395 kts 281°
2026-05-05 02:35 40.80912 -77.25569 35858 ft 395 kts 281°
2026-05-05 02:35 40.81974 -77.32701 35858 ft 396 kts 281°
2026-05-05 02:36 40.83036 -77.39843 35862 ft 397 kts 281°
2026-05-05 02:36 40.84088 -77.46990 35847 ft 396 kts 281°
2026-05-05 02:37 40.85136 -77.54138 35848 ft 396 kts 281°
2026-05-05 02:37 40.86175 -77.61283 35842 ft 396 kts 281°
2026-05-05 02:38 40.87210 -77.68433 35838 ft 396 kts 281°
2026-05-05 02:38 40.88245 -77.75580 35836 ft 396 kts 281°
2026-05-05 02:39 40.89269 -77.82683 35858 ft 396 kts 281°
2026-05-05 02:39 40.90291 -77.89834 35859 ft 396 kts 280°
2026-05-05 02:40 40.91299 -77.96994 35860 ft 396 kts 281°
2026-05-05 02:40 40.92394 -78.04127 35856 ft 396 kts 282°
2026-05-05 02:41 40.93354 -78.10037 35857 ft 396 kts 282°
2026-05-05 02:41 40.94518 -78.17146 35852 ft 395 kts 282°
2026-05-05 02:42 40.95673 -78.24264 35846 ft 395 kts 282°
2026-05-05 02:42 40.96816 -78.31376 35867 ft 395 kts 282°
2026-05-05 02:43 40.97946 -78.38489 35876 ft 394 kts 281°
2026-05-05 02:43 40.99073 -78.45589 35865 ft 394 kts 281°
2026-05-05 02:44 41.00197 -78.52675 35862 ft 393 kts 281°
2026-05-05 02:44 41.01310 -78.59762 35863 ft 393 kts 281°
2026-05-05 02:45 41.02411 -78.66850 35855 ft 393 kts 281°
2026-05-05 02:45 41.03519 -78.73937 35857 ft 393 kts 281°
2026-05-05 02:46 41.04620 -78.80969 35847 ft 392 kts 281°
2026-05-05 02:46 41.05717 -78.88043 35843 ft 392 kts 281°
2026-05-05 02:47 41.06809 -78.95124 35840 ft 392 kts 281°
2026-05-05 02:47 41.07896 -79.02208 35837 ft 392 kts 281°
2026-05-05 02:48 41.08975 -79.09285 35831 ft 392 kts 281°
2026-05-05 02:48 41.10051 -79.16374 35823 ft 392 kts 281°
2026-05-05 02:49 41.11103 -79.23327 35820 ft 392 kts 281°
2026-05-05 02:49 41.12172 -79.30392 35811 ft 392 kts 281°
2026-05-05 02:50 41.13239 -79.37489 35807 ft 393 kts 281°
2026-05-05 02:50 41.14294 -79.44593 35810 ft 393 kts 280°
2026-05-05 02:51 41.15353 -79.51711 35797 ft 394 kts 280°
2026-05-05 02:51 41.16421 -79.58864 35791 ft 396 kts 281°
2026-05-05 02:52 41.17486 -79.66037 35794 ft 396 kts 280°
2026-05-05 02:52 41.18542 -79.73221 35803 ft 397 kts 280°
2026-05-05 02:53 41.19588 -79.80423 35817 ft 397 kts 280°
2026-05-05 02:53 41.20101 -79.83978 35824 ft 386 kts 280°
2026-05-05 02:53 41.20599 -79.87414 35825 ft 371 kts 280°
2026-05-05 02:53 41.21075 -79.90676 35825 ft 360 kts 280°
2026-05-05 02:54 41.21546 -79.93916 35823 ft 355 kts 280°
2026-05-05 02:54 41.22472 -80.00343 35826 ft 354 kts 280°
2026-05-05 02:55 41.23394 -80.06793 35095 ft 363 kts 280°
2026-05-05 02:55 41.23872 -80.10157 33467 ft 381 kts 280°
2026-05-05 02:55 41.24580 -80.13630 31622 ft 399 kts 290°
2026-05-05 02:55 41.25617 -80.17131 29790 ft 415 kts 290°
2026-05-05 02:56 41.26696 -80.20750 27726 ft 427 kts 290°
2026-05-05 02:56 41.27804 -80.24464 25738 ft 437 kts 290°
2026-05-05 02:56 41.28933 -80.28250 23871 ft 443 kts 290°
2026-05-05 02:56 41.30062 -80.32042 22622 ft 435 kts 290°
2026-05-05 02:57 41.31136 -80.35656 22328 ft 404 kts 290°
2026-05-05 02:57 41.32137 -80.39024 21902 ft 381 kts 289°
2026-05-05 02:57 41.33081 -80.42220 21391 ft 363 kts 289°
2026-05-05 02:57 41.33978 -80.45271 20924 ft 346 kts 289°
2026-05-05 02:58 41.34840 -80.48198 20451 ft 332 kts 289°
2026-05-05 02:58 41.35665 -80.51002 20011 ft 319 kts 289°
2026-05-05 02:58 41.36461 -80.53709 19588 ft 308 kts 289°
2026-05-05 02:58 41.37226 -80.56316 19184 ft 297 kts 289°
2026-05-05 02:59 41.37963 -80.58839 18799 ft 288 kts 289°
2026-05-05 02:59 41.38675 -80.61282 18415 ft 279 kts 289°
2026-05-05 02:59 41.39366 -80.63659 18055 ft 271 kts 288°
2026-05-05 02:59 41.40038 -80.65966 17667 ft 263 kts 288°
2026-05-05 03:00 41.40683 -80.68173 17321 ft 255 kts 288°
2026-05-05 03:00 41.41314 -80.70333 16987 ft 247 kts 288°
2026-05-05 03:00 41.41932 -80.72456 16657 ft 244 kts 288°
2026-05-05 03:00 41.42541 -80.74553 16336 ft 241 kts 287°
2026-05-05 03:01 41.43144 -80.76630 16015 ft 241 kts 287°
2026-05-05 03:01 41.43753 -80.78728 15684 ft 243 kts 287°
2026-05-05 03:01 41.44366 -80.80839 15347 ft 245 kts 287°
2026-05-05 03:01 41.44980 -80.82965 15023 ft 247 kts 287°
2026-05-05 03:02 41.45600 -80.85110 14694 ft 249 kts 287°
2026-05-05 03:02 41.46225 -80.87274 14354 ft 251 kts 287°
2026-05-05 03:02 41.46848 -80.89427 14018 ft 253 kts 287°
2026-05-05 03:02 41.47482 -80.91621 13683 ft 255 kts 287°
2026-05-05 03:03 41.48132 -80.93865 13291 ft 257 kts 287°
2026-05-05 03:03 41.48768 -80.96057 12930 ft 257 kts 287°
2026-05-05 03:03 41.49411 -80.98285 12587 ft 257 kts 287°
2026-05-05 03:03 41.50051 -81.00508 12235 ft 257 kts 286°
2026-05-05 03:04 41.50691 -81.02731 11886 ft 256 kts 286°
2026-05-05 03:04 41.51278 -81.04962 11538 ft 253 kts 280°
2026-05-05 03:04 41.51535 -81.07256 11200 ft 249 kts 270°
2026-05-05 03:04 41.51480 -81.09549 10867 ft 246 kts 265°
2026-05-05 03:05 41.51384 -81.11821 10540 ft 245 kts 265°
2026-05-05 03:05 41.51288 -81.14087 10211 ft 244 kts 265°
2026-05-05 03:05 41.51194 -81.16337 9883 ft 243 kts 265°
2026-05-05 03:05 41.51100 -81.18580 9545 ft 241 kts 265°
2026-05-05 03:06 41.51007 -81.20803 9218 ft 239 kts 265°
2026-05-05 03:06 41.50914 -81.23003 8896 ft 235 kts 265°
2026-05-05 03:06 41.50823 -81.25162 8588 ft 231 kts 265°
2026-05-05 03:06 41.50734 -81.27297 8276 ft 229 kts 265°
2026-05-05 03:07 41.50644 -81.29398 7979 ft 225 kts 264°
2026-05-05 03:07 41.50552 -81.31471 7675 ft 222 kts 264°
2026-05-05 03:07 41.50463 -81.33486 7380 ft 219 kts 264°
2026-05-05 03:07 41.50374 -81.35495 7096 ft 216 kts 264°
2026-05-05 03:08 41.50294 -81.37477 6851 ft 211 kts 264°
2026-05-05 03:08 41.50222 -81.39384 6731 ft 201 kts 264°
2026-05-05 03:08 41.50153 -81.41205 6606 ft 192 kts 264°
2026-05-05 03:08 41.50087 -81.42949 6488 ft 186 kts 264°
2026-05-05 03:09 41.50020 -81.44670 6368 ft 186 kts 263°
2026-05-05 03:09 41.49953 -81.46389 6248 ft 185 kts 263°
2026-05-05 03:09 41.49886 -81.48103 6126 ft 185 kts 263°
2026-05-05 03:09 41.49819 -81.49808 5998 ft 184 kts 263°
2026-05-05 03:10 41.49751 -81.51516 5874 ft 185 kts 263°
2026-05-05 03:10 41.49682 -81.53228 5747 ft 185 kts 263°
2026-05-05 03:10 41.49617 -81.54906 5621 ft 178 kts 263°
2026-05-05 03:10 41.49556 -81.56526 5425 ft 172 kts 263°
2026-05-05 03:11 41.49495 -81.58113 5222 ft 170 kts 263°
2026-05-05 03:11 41.49436 -81.59660 5000 ft 169 kts 263°
2026-05-05 03:11 41.49375 -81.61215 4797 ft 167 kts 263°
2026-05-05 03:11 41.49312 -81.62748 4584 ft 162 kts 262°
2026-05-05 03:12 41.49251 -81.64229 4353 ft 153 kts 262°
2026-05-05 03:12 41.49196 -81.65598 4147 ft 147 kts 262°
2026-05-05 03:12 41.49143 -81.66928 3955 ft 141 kts 262°
2026-05-05 03:12 41.49091 -81.68221 3771 ft 139 kts 262°
2026-05-05 03:13 41.49039 -81.69500 3589 ft 138 kts 262°
2026-05-05 03:13 41.48988 -81.70774 3398 ft 137 kts 262°
2026-05-05 03:13 41.48935 -81.72043 3210 ft 137 kts 262°
2026-05-05 03:13 41.48719 -81.73263 3024 ft 136 kts 245°
2026-05-05 03:14 41.48153 -81.74283 2817 ft 137 kts 235°
2026-05-05 03:14 41.47565 -81.75281 2605 ft 138 kts 232°
2026-05-05 03:14 41.46962 -81.76271 2419 ft 136 kts 231°
2026-05-05 03:14 41.46360 -81.77241 2234 ft 135 kts 230°
2026-05-05 03:15 41.45761 -81.78198 2059 ft 134 kts 231°
2026-05-05 03:15 41.45164 -81.79149 1872 ft 133 kts 231°
2026-05-05 03:15 41.44569 -81.80094 1703 ft 132 kts 232°
2026-05-05 03:15 41.43975 -81.81035 1541 ft 132 kts 230°
2026-05-05 03:16 41.43380 -81.81979 1365 ft 132 kts 228°
2026-05-05 03:16 41.42788 -81.82916 1194 ft 132 kts 228°
2026-05-05 03:16 41.42190 -81.83863 1022 ft 137 kts 228°
2026-05-05 03:16 41.41592 -81.84810 841 ft 133 kts 227°
2026-05-05 03:17 41.41031 -81.85692 788 ft 113 kts 230°
2026-05-05 03:17 41.40691 -81.86245 785 ft 25 kts 229°
2026-05-05 03:17 41.40590 -81.86260 782 ft 0 kts 173°
2026-05-05 03:18 41.40573 -81.86256 782 ft 8 kts 167°
2026-05-05 03:19 41.40511 -81.86168 781 ft 14 kts 82°
2026-05-05 03:19 41.40566 -81.85988 782 ft 21 kts 51°
2026-05-05 03:19 41.40663 -81.85832 783 ft 23 kts 51°
2026-05-05 03:20 41.40705 -81.85759 782 ft 7 kts 53°
2026-05-05 03:20 41.40722 -81.85728 782 ft 2 kts 57°
2026-05-05 03:20 41.40723 -81.85726 782 ft 1 kts 57°
2026-05-05 03:20 41.40770 -81.85661 783 ft 22 kts 45°
2026-05-05 03:21 41.40879 -81.85492 782 ft 26 kts 50°
2026-05-05 03:21 41.40999 -81.85301 785 ft 28 kts 49°
2026-05-05 03:21 41.41078 -81.85123 789 ft 7 kts 86°
2026-05-05 03:21 41.41080 -81.85039 792 ft 17 kts 90°
2026-05-05 03:22 41.41073 -81.84823 795 ft 26 kts 95°
2026-05-05 03:22 41.41065 -81.84623 798 ft 21 kts 92°
2026-05-05 03:22 41.41063 -81.84447 800 ft 19 kts 90°
2026-05-05 03:22 41.41058 -81.84248 798 ft 23 kts 101°
2026-05-05 03:23 41.41004 -81.84150 798 ft 4 kts 105°
2026-05-05 03:23 41.40982 -81.84063 797 ft 13 kts 134°
2026-05-05 03:23 41.40948 -81.84044 797 ft 0 kts 159°
2026-05-05 03:24 41.41189 -81.84063 797 ft 0 kts 191°
2026-05-05 03:25 41.41188 -81.84063 797 ft 1 kts 191°
2026-05-05 03:25 41.41179 -81.84066 797 ft 0 kts 191°